Location: Kaarina
(60.4167°N, 22.4167°E)
Time: 11:23:14
(UTC+03:00)

Cosmos 2341 Rocket - Pass Details

Date: 24 August 2019
Orbit: 968 x 1004 km, 82.9° (Epoch: 19 September)

Event Time Altitude Azimuth Distance (km) Brightness Sun altitude
Rises 23:24:59 0° 345° (NNW) 3,744 8.6 -14.2°
Reaches altitude 10° 23:27:33 10° 348° (NNW) 2,788 7.6 -14.4°
Maximum altitude 23:33:58 72° 73° (ENE) 1,050 4.1 -14.8°
Enters shadow 23:38:16 22° 154° (SSE) 2,031 5.0 -15.1°
